Powrót do katalogu

SL-16 DEB

AktywnyLEO
NORAD 49051·DEBRIS·🇷🇺 Russia

Wystrzelony Dec 25, 1992 z Baikonur Cosmodrome

Loading…

Następne Przeloty (najbliższe 24 godziny)

TLE

ŚwieżeSource: Space-Track

Epoka: Sep 14, 2026, 13:41 UTC

1 49051U 92093LY  26257.57079007  .00000449  00000-0  25168-3 0  9991
2 49051  71.0235 327.4133 0005924 347.2187  12.8785 14.15996901 39305

Śledź SL-16 DEB w czasie rzeczywistym z AllMySat

Download on the App Store